COSMOS 1275 DEB

Satellite information

Favourite Embed

Satellite Type and Status

DEBRISIN ORBIT

Key statistics

Satellite COSMOS 1275 DEB at a glance.

Uptime

16165

Days in orbit

Revolutions

≈ 14.9

Per day

Orbit

LEO

Low Earth Orbit

Inclination

82.8

Latest

Satellite identification and parameters

Extended collection of information and parameters for COSMOS 1275 DEB.

Object identification

Identified? True

Debris? True

Object name: COSMOS 1275 DEB

International designator: 1981-053HD

Object number (NORAD): 13809

Object ID (CCSDS): 13809

Country: COMMONWEALTH OF INDEPENDENT STATES (CIS)

Current information (Y/N): Y

RCS size: SMALL

Orbital parameters

Period: 96.334 minutes

Inclination: 82.8052 deg

SMA: 6961.122 km

Apoapsis: 594.841 km

Periapsis: 571.133 km

RAAN: 250.0329 deg

Eccentricy: 0.00170287

Argument of periapsis: 52.1012 deg

Mean anomaly: 308.1747 deg

Mean motion: 14.94802878 rev/day

Mean motion (dot): 0.00035696 rev/day2

B* drag term: 0.0032575969 1/REarth

Two-line elements (TLE)

Creation date: Sept. 6, 2025, 2:09 a.m.

Reference frame: TEME

Reference center: EARTH

Epoch: Sept. 5, 2025, 6:38 p.m. UTC

TLE line 0: 0 COSMOS 1275 DEB

TLE line 1: 1 13809U 81053HD 25248.77687990 .00035696 00000-0 32576-2 0 9996

TLE line 2: 2 13809 82.8052 250.0329 0017029 52.1012 308.1747 14.94802878232894

Live tracking on map

Real-time ground track for satellite COSMOS 1275 DEB.

In-orbit conjunctions

A list of the most updated potential collisions computed for object COSMOS 1275 DEB.

Target Orbit TCA Probability of collision Miss distance Type
SL-14 R/B LEO 2025-05-22 07:10:37 0.0002641441 273.0 (m) ROCKET BODY

Associated space launch

Navigation satellite providing location information for the Tsiklon-B navigation system

COSMOS 1275 DEB was lifted into orbit during the mission ‘Kosmos-3M | Parus 27’, on board a Kosmos-3M space rocket.

The launch took place on June 4, 1981, 3:41 p.m. from 132/2.

For more information about the launch, click the button.

Launch to space Kosmos-3M | Parus 27
Kosmos-3M | Parus 27

Agency: N/A

Status: Launch Successful

Launch date: June 4, 1981, 3:41 p.m. UTC

Rocket: Kosmos-3M

Launch pad: 132/2

Location: Plesetsk Cosmodrome, Russian Federation

...

Latest news about this satellite

There are no fresh news available about this satellite. Check back as we update our databases every day.


Newsletter sign-up

Weekly statistics, charts and insights to help you stay on top of the space industry.